• In Kazakhstan
  • List of Countries
  • For 7 days
  • Water Temperature
  • Satellite Maps
  • Weather Map
  • News
  • Weather Widgets
  • user-avatar
    Login

    Hourly Weather Konstantyna

    Today, 18 March, Monday

    Time Temperature Precipitation Wind Pressure Humidity
    00:00 +11°C° 0 mm 1 mps 708 mmHg 73%
    01:00 +10°C° 0 mm 1 mps 708 mmHg 72%
    02:00 +10°C° 0 mm 1 mps 708 mmHg 72%
    03:00 +10°C° 0 mm 1 mps 708 mmHg 71%
    04:00 +9°C° 0 mm 1 mps 708 mmHg 69%
    05:00 +9°C° 0 mm 1 mps 708 mmHg 68%
    06:00 +9°C° 0 mm 1 mps 708 mmHg 69%
    07:00 +10°C° 0 mm 2 mps 709 mmHg 69%
    08:00 +13°C° 0 mm 2 mps 710 mmHg 68%
    09:00 +14°C° 0 mm 3 mps 710 mmHg 68%
    10:00 +14°C° 0 mm 3 mps 710 mmHg 70%
    11:00 +14°C° 0 mm 4 mps 711 mmHg 72%
    12:00 +13°C° 0 mm 4 mps 711 mmHg 76%
    13:00 +13°C° 0 mm 4 mps 711 mmHg 77%
    14:00 +12°C° 0 mm 4 mps 710 mmHg 78%
    15:00 +11°C° 0 mm 4 mps 710 mmHg 80%
    16:00 +10°C° 0 mm 4 mps 710 mmHg 82%
    17:00 +10°C° 0 mm 3 mps 711 mmHg 84%
    18:00 +9°C° 0 mm 3 mps 711 mmHg 87%
    19:00 +8°C° 0 mm 3 mps 711 mmHg 87%
    20:00 +8°C° 0 mm 2 mps 711 mmHg 87%
    21:00 +7°C° 0 mm 2 mps 712 mmHg 88%
    22:00 +7°C° 0 mm 2 mps 712 mmHg 90%
    23:00 +7°C° 0 mm 1 mps 711 mmHg 93%

    Tomorrow, 19 March, Tuesday

    Time Temperature Precipitation Wind Pressure Humidity
    00:00 +6°C° 0 mm 1 mps 711 mmHg 95%
    01:00 +6°C° 0 mm 1 mps 711 mmHg 96%
    02:00 +5°C° 0 mm 1 mps 711 mmHg 96%
    03:00 +5°C° 0 mm 1 mps 711 mmHg 96%
    04:00 +5°C° 0 mm 1 mps 711 mmHg 95%
    05:00 +5°C° 0 mm 1 mps 711 mmHg 95%
    06:00 +5°C° 0 mm 1 mps 711 mmHg 95%
    07:00 +6°C° 0 mm 1 mps 711 mmHg 86%
    08:00 +7°C° 0 mm 2 mps 711 mmHg 77%
    09:00 +9°C° 0 mm 3 mps 712 mmHg 68%
    10:00 +9°C° 0 mm 3 mps 712 mmHg 66%
    11:00 +10°C° 0 mm 4 mps 711 mmHg 63%
    12:00 +11°C° 0 mm 4 mps 711 mmHg 61%
    13:00 +10°C° 0.1 mm 4 mps 711 mmHg 62%
    14:00 +10°C° 0.1 mm 4 mps 711 mmHg 63%
    15:00 +10°C° 0.1 mm 4 mps 710 mmHg 64%
    16:00 +8°C° 0.1 mm 4 mps 711 mmHg 71%
    17:00 +8°C° 0.1 mm 3 mps 711 mmHg 77%
    18:00 +7°C° 0.1 mm 2 mps 711 mmHg 84%
    19:00 +6°C° 0.2 mm 2 mps 711 mmHg 87%
    20:00 +6°C° 0.2 mm 2 mps 711 mmHg 91%
    21:00 +7°C° 0.2 mm 1 mps 712 mmHg 94%
    22:00 +6°C° 0.1 mm 1 mps 712 mmHg 94%
    23:00 +6°C° 0.1 mm 1 mps 712 mmHg 95%

    Day after tomorrow, 20 March, Wednesday

    Time Temperature Precipitation Wind Pressure Humidity
    00:00 +6°C° 0.1 mm 1 mps 711 mmHg 95%
    01:00 +6°C° 0.1 mm 1 mps 711 mmHg 95%
    02:00 +5°C° 0.1 mm 1 mps 711 mmHg 95%
    03:00 +5°C° 0.1 mm 1 mps 710 mmHg 95%
    04:00 +5°C° 0 mm 1 mps 710 mmHg 95%
    05:00 +4°C° 0 mm 1 mps 710 mmHg 95%
    06:00 +4°C° 0 mm 1 mps 710 mmHg 95%
    07:00 +6°C° 0 mm 1 mps 711 mmHg 86%
    08:00 +7°C° 0 mm 2 mps 711 mmHg 78%
    09:00 +9°C° 0 mm 2 mps 712 mmHg 70%
    10:00 +10°C° 0 mm 2 mps 712 mmHg 64%
    11:00 +11°C° 0 mm 3 mps 712 mmHg 58%
    12:00 +12°C° 0 mm 4 mps 712 mmHg 53%
    13:00 +11°C° 0.3 mm 4 mps 711 mmHg 58%
    14:00 +9°C° 0.3 mm 5 mps 711 mmHg 64%
    15:00 +9°C° 0.3 mm 5 mps 711 mmHg 69%
    16:00 +8°C° 0.2 mm 4 mps 711 mmHg 76%
    17:00 +8°C° 0.2 mm 3 mps 711 mmHg 83%
    18:00 +7°C° 0.2 mm 3 mps 711 mmHg 89%
    19:00 +6°C° 0.6 mm 2 mps 711 mmHg 91%
    20:00 +6°C° 0.6 mm 2 mps 711 mmHg 93%
    21:00 +6°C° 0.6 mm 2 mps 712 mmHg 95%
    22:00 +6°C° 1.1 mm 2 mps 712 mmHg 95%
    23:00 +7°C° 1.1 mm 1 mps 711 mmHg 95%

    21 March, Thursday

    Time Temperature Precipitation Wind Pressure Humidity
    00:00 +7°C° 1.1 mm 1 mps 711 mmHg 95%
    01:00 +7°C° 1.4 mm 1 mps 711 mmHg 95%
    02:00 +6°C° 1.4 mm 1 mps 710 mmHg 95%
    03:00 +6°C° 1.4 mm 1 mps 710 mmHg 95%
    04:00 +5°C° 0.3 mm 2 mps 710 mmHg 95%
    05:00 +6°C° 0.3 mm 2 mps 710 mmHg 95%
    06:00 +6°C° 0.3 mm 2 mps 710 mmHg 95%
    07:00 +6°C° 0.7 mm 2 mps 710 mmHg 94%
    08:00 +6°C° 0.7 mm 2 mps 710 mmHg 93%
    09:00 +7°C° 0.7 mm 2 mps 710 mmHg 91%
    10:00 +7°C° 1.1 mm 2 mps 710 mmHg 91%
    11:00 +7°C° 1.1 mm 2 mps 710 mmHg 92%
    12:00 +8°C° 1.1 mm 3 mps 710 mmHg 92%
    13:00 +8°C° 2.5 mm 3 mps 709 mmHg 93%
    14:00 +8°C° 2.5 mm 3 mps 709 mmHg 95%
    15:00 +8°C° 2.5 mm 3 mps 708 mmHg 96%
    16:00 +7°C° 2.4 mm 4 mps 708 mmHg 96%
    17:00 +8°C° 2.4 mm 4 mps 708 mmHg 97%
    18:00 +8°C° 2.4 mm 4 mps 708 mmHg 98%
    19:00 +8°C° 2.6 mm 4 mps 708 mmHg 98%
    20:00 +8°C° 2.6 mm 4 mps 708 mmHg 98%
    21:00 +8°C° 2.6 mm 4 mps 709 mmHg 98%
    22:00 +9°C° 0.5 mm 3 mps 709 mmHg 98%
    23:00 +9°C° 0.5 mm 3 mps 709 mmHg 98%

    22 March, Friday

    Time Temperature Precipitation Wind Pressure Humidity
    00:00 +9°C° 0.5 mm 3 mps 709 mmHg 98%
    01:00 +9°C° 0.1 mm 3 mps 709 mmHg 98%
    02:00 +8°C° 0.1 mm 2 mps 708 mmHg 98%
    03:00 +8°C° 0.1 mm 2 mps 708 mmHg 98%
    04:00 +8°C° 0.1 mm 2 mps 709 mmHg 98%
    05:00 +8°C° 0.1 mm 2 mps 709 mmHg 98%
    06:00 +8°C° 0.1 mm 2 mps 710 mmHg 98%
    07:00 +9°C° 0 mm 2 mps 710 mmHg 93%
    08:00 +10°C° 0 mm 2 mps 711 mmHg 87%
    09:00 +12°C° 0 mm 2 mps 711 mmHg 82%
    10:00 +12°C° 0.4 mm 2 mps 711 mmHg 79%
    11:00 +12°C° 0.4 mm 3 mps 711 mmHg 76%
    12:00 +13°C° 0.4 mm 3 mps 712 mmHg 72%
    13:00 +13°C° 0.8 mm 3 mps 712 mmHg 73%
    14:00 +13°C° 0.8 mm 3 mps 711 mmHg 73%
    15:00 +13°C° 0.8 mm 3 mps 711 mmHg 74%
    16:00 +11°C° 0.9 mm 3 mps 712 mmHg 79%
    17:00 +10°C° 0.9 mm 2 mps 712 mmHg 84%
    18:00 +9°C° 0.9 mm 2 mps 712 mmHg 89%
    19:00 +9°C° 0 mm 1 mps 712 mmHg 90%
    20:00 +8°C° 0 mm 1 mps 713 mmHg 91%
    21:00 +7°C° 0 mm 1 mps 713 mmHg 92%
    22:00 +7°C° 0 mm 1 mps 713 mmHg 92%
    23:00 +7°C° 0 mm 1 mps 713 mmHg 92%

    23 March, Saturday

    Time Temperature Precipitation Wind Pressure Humidity
    00:00 +6°C° 0 mm 1 mps 713 mmHg 92%
    01:00 +5°C° 0 mm 0 mps 713 mmHg 92%
    02:00 +5°C° 0 mm 0 mps 713 mmHg 91%
    03:00 +5°C° 0 mm 0 mps 713 mmHg 91%
    04:00 +5°C° 0 mm 0 mps 714 mmHg 90%
    05:00 +5°C° 0 mm 0 mps 714 mmHg 90%
    06:00 +5°C° 0 mm 0 mps 714 mmHg 89%
    07:00 +7°C° 0 mm 0 mps 715 mmHg 82%
    08:00 +10°C° 0 mm 0 mps 715 mmHg 74%
    09:00 +13°C° 0 mm 1 mps 716 mmHg 67%
    10:00 +14°C° 0 mm 1 mps 716 mmHg 63%
    11:00 +15°C° 0 mm 1 mps 716 mmHg 58%
    12:00 +16°C° 0 mm 2 mps 716 mmHg 54%
    13:00 +16°C° 0 mm 2 mps 715 mmHg 56%
    14:00 +16°C° 0 mm 2 mps 715 mmHg 58%
    15:00 +16°C° 0 mm 2 mps 714 mmHg 59%
    16:00 +14°C° 0 mm 2 mps 714 mmHg 68%
    17:00 +13°C° 0 mm 2 mps 714 mmHg 76%
    18:00 +10°C° 0 mm 2 mps 714 mmHg 84%
    19:00 +10°C° 0 mm 2 mps 714 mmHg 87%
    20:00 +9°C° 0 mm 2 mps 714 mmHg 90%
    21:00 +8°C° 0 mm 2 mps 715 mmHg 93%
    22:00 +8°C° 0 mm 2 mps 714 mmHg 93%
    23:00 +9°C° 0 mm 1 mps 714 mmHg 92%
    Show more